IRIDIUM 106 1 41917U 17003A 26235.00350018 .00000061 00000+0 14708-4 0 9998 2 41917 86.3915 60.6008 0002368 82.9195 277.2270 14.34217768502781 IRIDIUM 103 1 41918U 17003B 26235.47919222 .00000062 00000+0 15000-4 0 9995 2 41918 86.3915 60.3012 0002280 93.3130 266.8327 14.34217616502871 IRIDIUM 109 1 41919U 17003C 26234.92739017 .00000061 00000+0 14791-4 0 9992 2 41919 86.3916 60.5929 0002192 90.5142 269.6305 14.34217634502761 IRIDIUM 102 1 41920U 17003D 26235.52359087 .00000053 00000+0 11733-4 0 9990 2 41920 86.3917 60.2655 0002167 88.0300 272.1144 14.34217213502939 IRIDIUM 105 1 41921U 17003E 26235.41241986 -.00000038 00000+0 -20742-4 0 9992 2 41921 86.3967 28.7485 0001924 99.0129 261.1285 14.34216946504776 IRIDIUM 104 1 41922U 17003F 26234.97813986 .00000064 00000+0 15959-4 0 9999 2 41922 86.3916 60.5373 0002127 97.6531 262.4907 14.34218463502845 IRIDIUM 114 1 41923U 17003G 26235.47284824 .00000131 00000+0 39738-4 0 9995 2 41923 86.3916 60.3132 0002216 92.8436 267.3013 14.34217129502892 IRIDIUM 108 1 41924U 17003H 26235.36160254 .00000102 00000+0 29241-4 0 9990 2 41924 86.3962 28.6557 0002085 92.2192 267.9243 14.34217682504739 IRIDIUM 112 1 41925U 17003J 26235.46016433 .00000068 00000+0 17214-4 0 9999 2 41925 86.3911 60.1573 0002121 91.1397 269.0042 14.34218108502911 IRIDIUM 111 1 41926U 17003K 26235.51724863 .00000063 00000+0 15477-4 0 9993 2 41926 86.3913 60.2057 0002198 89.2467 270.8981 14.34217953502900 IRIDIUM 113 1 42803U 17039A 26234.65999062 .00000016 00000+0 -14176-5 0 9991 2 42803 86.3961 294.4004 0002248 97.0451 263.1001 14.34217724480715 IRIDIUM 123 1 42804U 17039B 26235.18984967 .00000004 00000+0 -55510-5 0 9993 2 42804 86.4010 325.6435 0002283 93.8954 266.2503 14.34217482479550 IRIDIUM 120 1 42805U 17039C 26235.42110178 .00000017 00000+0 -11662-5 0 9990 2 42805 86.3948 293.8558 0002341 91.0954 269.0510 14.34217633480815 IRIDIUM 115 1 42806U 17039D 26235.16149199 .00000080 00000+0 17841-4 0 9990 2 42806 86.4487 294.1023 0002503 93.4495 266.6992 14.43280093483924 IRIDIUM 118 1 42807U 17039E 26235.50063632 -.00000024 00000+0 -15700-4 0 9998 2 42807 86.4008 325.5116 0002093 96.2693 263.8741 14.34217489479599 IRIDIUM 117 1 42808U 17039F 26235.51966407 -.00000007 00000+0 -97233-5 0 9995 2 42808 86.4007 325.4604 0002182 94.6722 265.4723 14.34217472479628 IRIDIUM 126 1 42809U 17039G 26235.47526589 .00000016 00000+0 -14498-5 0 9995 2 42809 86.4010 325.5314 0002199 98.1509 261.9936 14.34217612479591 IRIDIUM 124 1 42810U 17039H 26235.51129274 .00000202 00000+0 54033-4 0 9996 2 42810 86.4437 262.2020 0002415 92.5933 267.5544 14.43278159484829 IRIDIUM 128 1 42811U 17039J 26235.60553934 .00000077 00000+0 20279-4 0 9996 2 42811 86.4017 356.9680 0002259 90.4854 269.6601 14.34218509479646 IRIDIUM 121 1 42812U 17039K 26235.49429380 -.00000026 00000+0 -16264-4 0 9996 2 42812 86.4012 325.5519 0002104 93.3956 266.7480 14.34217328479471 IRIDIUM 133 1 42955U 17061A 26234.86979954 .00000021 00000+0 37956-6 0 9992 2 42955 86.4015 357.3943 0002210 92.9011 267.2438 14.34217865464335 IRIDIUM 100 1 42956U 17061B 26235.35183679 .00000007 00000+0 -46677-5 0 9993 2 42956 86.4013 357.1105 0002056 93.1350 267.0081 14.34217548464407 IRIDIUM 122 1 42957U 17061C 26235.32012421 -.00000007 00000+0 -96523-5 0 9993 2 42957 86.4014 357.1242 0002148 95.5515 264.5926 14.34217468464403 IRIDIUM 129 1 42958U 17061D 26235.27572509 .00000186 00000+0 59376-4 0 9996 2 42958 86.4017 357.2101 0002079 99.1486 260.9945 14.34217680464410 IRIDIUM 119 1 42959U 17061E 26235.59285554 -.00000015 00000+0 -12325-4 0 9999 2 42959 86.4015 357.0742 0002139 96.4334 263.7106 14.34217494464476 IRIDIUM 107 1 42960U 17061F 26235.26304126 .00000055 00000+0 12538-4 0 9990 2 42960 86.4016 357.2333 0002439 93.4555 266.6920 14.34217848464437 IRIDIUM 132 1 42961U 17061G 26235.61822288 .00000193 00000+0 61724-4 0 9998 2 42961 86.4028 357.0641 0002101 93.7872 266.3564 14.34217219464480 IRIDIUM 136 1 42962U 17061H 26235.58016967 .00000169 00000+0 53309-4 0 9997 2 42962 86.4016 357.0868 0002143 93.1473 266.9968 14.34217389464499 IRIDIUM 139 1 42963U 17061J 26235.30743876 .00000027 00000+0 27203-5 0 9992 2 42963 86.4017 357.2635 0002205 91.9226 268.2223 14.34217789464466 IRIDIUM 125 1 42964U 17061K 26235.29475435 -.00000056 00000+0 -27094-4 0 9995 2 42964 86.4017 357.3314 0002467 102.0021 258.1452 14.34217319464471 IRIDIUM 135 1 43070U 17083A 26235.12934255 .00000004 00000+0 -56915-5 0 9997 2 43070 86.3953 294.0364 0002169 95.0158 265.1286 14.34217488453749 IRIDIUM 138 1 43071U 17083B 26235.57332431 .00000024 00000+0 14662-5 0 9999 2 43071 86.3967 293.5566 0002315 97.2759 262.8700 14.34217633453799 IRIDIUM 116 1 43072U 17083C 26235.47184255 .00000020 00000+0 17719-6 0 9991 2 43072 86.3952 293.8784 0002213 86.6344 273.5105 14.34217632453818 IRIDIUM 130 1 43073U 17083D 26235.57966717 .00000024 00000+0 13336-5 0 9998 2 43073 86.3962 294.1154 0002446 89.8045 270.3431 14.34217645453772 IRIDIUM 151 1 43074U 17083E 26235.62406495 .00000018 00000+0 -55395-6 0 9993 2 43074 86.3954 293.8740 0002166 92.8387 267.3057 14.34217582453807 IRIDIUM 134 1 43075U 17083F 26235.17374087 .00000010 00000+0 -36158-5 0 9992 2 43075 86.3955 294.0715 0002214 92.9036 267.2414 14.34217525453702 IRIDIUM 137 1 43076U 17083G 26235.60503637 .00000017 00000+0 -96575-6 0 9993 2 43076 86.3959 293.9854 0002021 86.6798 273.4629 14.34217667453838 IRIDIUM 141 1 43077U 17083H 26235.11031433 .00000062 00000+0 14907-4 0 9996 2 43077 86.3954 294.0191 0002278 96.0184 264.1272 14.34217973453761 IRIDIUM 153 1 43078U 17083J 26235.55087290 .00000024 00000+0 14681-5 0 9995 2 43078 86.3915 262.3003 0002371 95.1102 265.0364 14.34217612454935 IRIDIUM 131 1 43079U 17083K 26235.58600919 .00000180 00000+0 57089-4 0 9999 2 43079 86.3960 294.0105 0002204 95.7579 264.3868 14.34217839453762 IRIDIUM 144 1 43249U 18030A 26235.48743852 .00000111 00000+0 32644-4 0 9998 2 43249 86.3930 262.2543 0002700 88.9401 271.2104 14.34202282439782 IRIDIUM 149 1 43250U 18030B 26235.49378969 .00000041 00000+0 74347-5 0 9993 2 43250 86.3912 262.2179 0002287 93.0639 267.0818 14.34217651439803 IRIDIUM 157 1 43251U 18030C 26235.37328004 .00000037 00000+0 60663-5 0 9997 2 43251 86.3914 262.3231 0002309 91.8383 268.3077 14.34217791439764 IRIDIUM 140 1 43252U 18030D 26235.32253896 .00000049 00000+0 10548-4 0 9998 2 43252 86.3914 262.3568 0002354 91.6395 268.5071 14.34217933439819 IRIDIUM 145 1 43253U 18030E 26235.03078029 .00000063 00000+0 15483-4 0 9999 2 43253 86.3915 262.4510 0002395 85.0696 275.0773 14.34217968439703 IRIDIUM 146 1 43254U 18030F 26235.08152026 .00000026 00000+0 21828-5 0 9995 2 43254 86.3913 262.4416 0002338 89.3312 270.8152 14.34217783439727 IRIDIUM 148 1 43255U 18030G 26235.53818681 .00000009 00000+0 -37966-5 0 9994 2 43255 86.3916 262.2946 0002054 91.9772 268.1659 14.34217645439821 IRIDIUM 142 1 43256U 18030H 26235.01809528 .00000030 00000+0 38034-5 0 9998 2 43256 86.3911 262.3989 0002297 87.7186 272.4273 14.34217699439713 IRIDIUM 150 1 43257U 18030J 26235.54453082 .00000041 00000+0 77045-5 0 9994 2 43257 86.3914 262.2971 0002356 90.4184 269.7281 14.34217624439819 IRIDIUM 143 1 43258U 18030K 26235.31621091 .00000168 00000+0 52785-4 0 9990 2 43258 86.3917 262.4879 0002380 89.3533 270.7935 14.34220140439718 IRIDIUM 161 1 43478U 18047C 26235.48923846 .00000076 00000+0 16731-4 0 9992 2 43478 86.4436 60.3079 0002075 92.7985 267.3453 14.43280324434842 IRIDIUM 152 1 43479U 18047D 26234.45169314 .00000159 00000+0 49668-4 0 9998 2 43479 86.3913 60.6040 0002149 90.0576 270.0866 14.34217226431984 IRIDIUM 147 1 43480U 18047E 26235.50456308 .00000065 00000+0 16154-4 0 9999 2 43480 86.3912 60.1697 0002161 86.0286 274.1157 14.34218051432138 IRIDIUM 110 1 43481U 18047F 26235.51090865 .00000065 00000+0 16152-4 0 9991 2 43481 86.3914 60.2607 0002018 96.0459 264.0967 14.34217547432122 IRIDIUM 162 1 43482U 18047G 26234.99761866 .00000061 00000+0 11993-4 0 9993 2 43482 86.4434 60.4039 0002250 88.7258 271.4201 14.43280020434766 IRIDIUM 160 1 43569U 18061A 26235.38697310 -.00000056 00000+0 -27220-4 0 9997 2 43569 86.3963 28.6847 0001997 91.9984 268.1440 14.34217187423007 IRIDIUM 166 1 43570U 18061B 26235.41234345 -.00000015 00000+0 -12458-4 0 9990 2 43570 86.3963 28.6238 0002054 88.8020 271.3411 14.34217444423037 IRIDIUM 158 1 43571U 18061C 26235.38063048 -.00000038 00000+0 -20470-4 0 9995 2 43571 86.3965 28.6472 0002107 93.0960 267.0477 14.34217344422997 IRIDIUM 165 1 43572U 18061D 26235.40600099 .00000193 00000+0 61746-4 0 9993 2 43572 86.3968 28.6835 0002478 96.0973 264.0505 14.34217550423025 IRIDIUM 155 1 43573U 18061E 26235.43771086 .00000204 00000+0 65686-4 0 9992 2 43573 86.3963 28.5363 0002235 91.4401 268.7050 14.34219549422993 IRIDIUM 154 1 43574U 18061F 26235.34891314 .00000200 00000+0 64384-4 0 9990 2 43574 86.3967 28.7105 0002156 88.7635 271.3808 14.34220150423031 IRIDIUM 163 1 43575U 18061G 26235.39965599 .00000182 00000+0 57782-4 0 9996 2 43575 86.3964 28.6023 0002136 93.6469 266.4971 14.34217147423011 IRIDIUM 156 1 43576U 18061H 26235.44405898 .00000197 00000+0 63338-4 0 9994 2 43576 86.3963 28.5910 0002329 90.8090 269.3373 14.34219481423019 IRIDIUM 164 1 43577U 18061J 26235.35525984 -.00000001 00000+0 -73134-5 0 9996 2 43577 86.3964 28.6698 0002010 88.8490 271.2936 14.34217578423048 IRIDIUM 159 1 43578U 18061K 26235.39331478 .00000100 00000+0 28472-4 0 9996 2 43578 86.3966 28.5892 0002152 94.4988 265.6454 14.34219040423013 IRIDIUM 180 1 43922U 19002A 26234.76491082 .00000421 00000+0 14315-3 0 9999 2 43922 86.4013 325.7811 0002195 95.0525 265.0922 14.34218311398536 IRIDIUM 176 1 43923U 19002B 26235.51498557 .00000550 00000+0 83400-4 0 9993 2 43923 86.6133 325.4018 0002368 92.6229 267.5259 14.72250812409159 IRIDIUM 168 1 43924U 19002C 26235.24693240 .00000018 00000+0 -68441-6 0 9990 2 43924 86.4014 325.6588 0002208 95.7227 264.4221 14.34217705398586 IRIDIUM 173 1 43925U 19002D 26235.51332117 .00000020 00000+0 15380-8 0 9992 2 43925 86.4009 325.4333 0002280 95.2539 264.8917 14.34217798398609 IRIDIUM 169 1 43926U 19002E 26235.30401874 .00000238 00000+0 71342-4 0 9994 2 43926 86.4270 357.1374 0002710 94.3683 265.7825 14.38611634399874 IRIDIUM 172 1 43927U 19002F 26235.22790469 .00000012 00000+0 -29043-5 0 9990 2 43927 86.4009 325.5609 0002211 95.8983 264.2465 14.34217641398576 IRIDIUM 175 1 43928U 19002G 26235.02532705 .00000205 00000+0 54620-4 0 9997 2 43928 86.4468 262.5754 0004015 37.7612 322.3870 14.43641571408622 IRIDIUM 171 1 43929U 19002H 26235.55771915 .00000101 00000+0 29059-4 0 9997 2 43929 86.4020 325.7368 0002244 93.2167 266.9286 14.34217764398618 IRIDIUM 170 1 43930U 19002J 26235.52116488 .00000643 00000+0 98140-4 0 9992 2 43930 86.6131 325.4009 0002332 95.9983 264.1500 14.72251834409167 IRIDIUM 167 1 43931U 19002K 26235.20253323 .00000115 00000+0 33846-4 0 9994 2 43931 86.4008 325.5939 0002379 89.1944 270.9525 14.34217535398566 IRIDIUM 181 1 56726U 23068S 26235.49463163 .00000246 00000+0 67110-4 0 9999 2 56726 86.4502 28.6395 0002017 90.5978 269.5454 14.43308461172148 IRIDIUM 177 1 56727U 23068T 26235.59388607 .00000766 00000+0 97807-4 0 9993 2 56727 86.1960 296.7964 0002503 96.0768 264.0738 14.80034569176338 IRIDIUM 174 1 56728U 23068U 26235.50880830 .00000615 00000+0 93617-4 0 9998 2 56728 86.6140 325.5604 0002568 100.7302 259.4205 14.72249785175924 IRIDIUM 178 1 56729U 23068V 26235.31255585 .00000909 00000+0 11673-3 0 9998 2 56729 86.6586 357.3186 0002472 93.6367 266.5137 14.80041922176298 IRIDIUM 179 1 56730U 23068W 26235.30718196 .00000860 00000+0 11021-3 0 9994 2 56730 86.6813 6.4944 0002496 90.6680 269.4827 14.80046698176291